[[{"header":{"parameterUnit":"m.s-1","parameterCategory":1,"la1":30.2991,"la2":30.254,"lo1":-89.0895,"lo2":-89.0444,"dy":0.0017,"dx":0.0017,"nx":28,"ny":28,"refTime":"2024-08-13T21:00:00:Z","depth":0,"parameterNumber":2,"parameterNumberName":"U-component_of_WINDS"},"data":[0,0,0,0,0,0,0,0,0,0,0,0,0,0,0,0,0,0,0,0,0,0,0,0,0,0,0,0,0,0,0,0,0,0,0,0,0,0,0,0,0,0,0,0,0,0,0,0,0,0,0,0,0,0,0,0,0,0,1.2763,1.2764,0,1.2859,1.286,1.2861,1.2835,1.2833,1.2831,1.2829,1.2935,1.2939,1.2944,0,0,0,0,0,0,0,0,0,0,0,0,0,1.2565,1.2569,1.2763,1.2765,1.2766,1.2859,1.286,1.2862,1.2835,1.2833,1.2831,1.2828,1.2933,1.2939,1.2944,0,0,0,0,0,0,0,0,0,0,0,0,0,1.2655,1.257,1.2763,1.2764,1.2765,1.2859,1.286,1.2862,1.2836,1.2833,1.283,1.2827,1.2931,1.2938,1.2945,1.3046,0,0,1.2966,1.2969,0,0,0,0,0,0,0,0,1.265,1.2663,1.2762,1.2764,1.2765,1.2832,1.2829,1.2924,1.2837,1.2809,1.2829,1.2826,1.2903,1.2912,1.2937,1.3051,1.3056,1.2967,1.2971,1.2974,1.2976,0,0,0,0,0,0,0,1.2644,1.2658,1.2801,1.2764,1.2766,1.2762,1.2771,1.2847,1.2872,1.2811,1.2809,1.2821,1.2904,1.293,1.2939,1.3057,1.2967,1.2973,1.2977,1.298,1.3263,1.3266,0,0,0,0,0,0,1.2636,1.2653,1.2798,1.2804,1.2699,1.2768,1.2778,1.2814,1.2871,1.2877,1.2823,1.2819,1.292,1.2931,1.2943,1.3068,1.2974,1.298,1.2984,1.3259,1.3263,1.3267,0,0,0,0,0,0,1.2632,1.2649,1.2795,1.2728,1.2747,1.2774,1.2814,1.2817,1.2844,1.288,1.2885,1.2846,1.2918,1.2933,1.3021,1.3071,1.2984,1.299,1.3255,1.326,1.3265,1.3316,0,0,0,0,0,0,1.2626,1.2648,1.2685,1.2729,1.275,1.2869,1.2817,1.2821,1.2855,1.2851,1.2902,1.2908,1.2917,1.3011,1.3028,1.3079,1.2995,1.3251,1.3258,1.3263,1.331,1.3323,1.3333,0,0,0,0,0,1.2619,1.2697,1.2687,1.2704,1.2797,1.2872,1.2884,1.2891,1.2859,1.2898,1.2921,1.2906,1.3062,1.302,1.3039,1.3093,1.3248,1.3256,1.3263,1.3305,1.332,1.3333,0,0,0,0,0,0,1.266,1.2702,1.2692,1.2786,1.2825,1.2867,1.2916,1.2906,1.2957,1.2951,1.2959,1.2971,1.3062,1.3086,1.3038,1.3195,1.3151,1.3162,1.3176,1.3191,1.3202,1.3195,1.3001,0,0,0,0,0,1.2679,1.2734,1.2769,1.2849,1.2868,1.2889,1.2922,1.2923,1.2966,1.2983,1.3013,1.3056,1.3115,1.3154,1.321,1.3313,1.3325,1.3359,1.3371,1.338,1.3391,1.345,1.3466,1.3292,1.3292,1.3291,0,0,1.272,1.2751,1.2785,1.2857,1.2888,1.2948,1.2903,1.2968,1.3013,1.2994,1.3078,1.3101,1.3151,1.3247,1.3291,1.327,1.3441,1.3389,1.3396,1.3403,1.3459,1.3475,1.349,1.3297,1.3296,1.3295,0,0,1.2827,1.2854,1.2924,1.2955,1.3001,1.3014,1.3031,1.3075,1.3089,1.3173,1.3161,1.3215,1.3316,1.3352,1.3384,1.3504,1.3493,1.3522,1.3582,1.3639,1.3653,1.3665,1.3711,1.3727,1.3532,1.3532,1.3533,0,1.2874,1.296,1.2962,1.3028,1.3061,1.3043,1.3116,1.3147,1.321,1.3235,1.3209,1.3336,1.3368,1.3474,1.3503,1.3528,1.355,1.3518,1.365,1.3663,1.3674,1.3718,1.3735,1.3536,1.3535,1.3535,1.3535,0,1.3017,1.3077,1.3128,1.3188,1.3226,1.3295,1.331,1.335,1.3348,1.3364,1.3452,1.3489,1.3553,1.3578,1.3578,1.3685,1.367,1.3647,1.3603,1.3694,1.3735,1.3752,1.3541,1.3539,1.3538,1.3538,0,0,1.3153,1.3211,1.3231,1.3258,1.3308,1.3356,1.3425,1.3485,1.352,1.3564,1.3624,1.371,1.3689,1.3725,1.3728,1.3778,1.3874,1.375,1.3751,1.3774,1.3997,1.4016,1.4035,1.3866,1.3869,1.3872,1.3994,0,1.3266,1.3385,1.3389,1.3499,1.3556,1.354,1.3601,1.3639,1.3657,1.371,1.373,1.3791,1.3757,1.3779,1.3828,1.3852,1.392,1.3843,1.3925,1.3928,1.3916,1.4056,1.4076,1.419,1.401,1.4013,1.4015,0,1.3414,1.346,1.3576,1.3618,1.3642,1.3696,1.3753,1.3802,1.3847,1.3856,1.3896,1.3892,1.3965,1.3917,1.402,1.3967,1.4001,1.4018,1.4023,1.4033,1.3979,1.4073,1.4226,1.4244,1.404,1.4038,1.4036,0,1.3505,1.3597,1.3678,1.3702,1.3752,1.3791,1.3815,1.3855,1.3892,1.3942,1.3966,1.4024,1.4057,1.4104,1.4117,1.408,1.4221,1.4172,1.4233,1.4233,1.4266,1.4264,1.443,1.4283,1.4283,1.4283,1.4282,0,1.3632,1.3704,1.372,1.377,1.3851,1.3855,1.3936,1.3957,1.3993,1.405,1.4039,1.4093,1.4106,1.4162,1.4173,1.4258,1.4273,1.4285,1.4287,1.4287,1.4286,1.4311,1.4305,1.4287,1.4286,1.4285,1.4284,0,1.3749,1.3762,1.385,1.389,1.3902,1.396,1.3996,1.4045,1.406,1.4132,1.4149,1.4175,1.4241,1.4257,1.4337,1.4344,1.4446,1.444,1.4431,1.4431,1.4492,1.4487,1.4682,1.4709,1.4542,1.4544,1.4545,0,1.3831,1.3885,1.3931,1.3967,1.3991,1.4049,1.4086,1.4092,1.4132,1.4186,1.423,1.4294,1.4346,1.4453,1.4481,1.4542,1.4539,1.4603,1.4548,1.4547,1.4543,1.4541,1.4548,1.4614,1.4616,1.4617,1.4619,0,1.3975,1.3979,1.4031,1.4086,1.4129,1.4173,1.4215,1.4246,1.4259,1.4304,1.437,1.441,1.449,1.4556,1.4617,1.4644,1.4636,1.4635,1.4653,1.4655,1.4648,1.4655,1.4462,1.4631,1.463,1.4629,1.4628,1.4628,1.4079,1.4127,1.4167,1.4226,1.4258,1.4298,1.4346,1.4367,1.4422,1.4486,1.4487,1.4561,1.4605,1.4686,1.4716,1.4776,1.4757,1.4782,1.4789,1.4796,1.4802,1.4636,1.4787,1.4786,1.4786,1.4786,1.4785,0,1.4225,1.425,1.4303,1.4362,1.4409,1.4392,1.4438,1.448,1.4543,1.4584,1.4635,1.4712,1.4775,1.4807,1.487,1.4912,1.4909,1.4929,1.4927,1.4934,1.4814,1.4794,1.493,1.493,1.493,1.4929,1.4929,1.4929,1.4307,1.4389,1.4398,1.4496,1.452,1.459,1.4618,1.4656,1.4688,1.4774,1.4826,1.4845,1.4883,1.4949,1.5007,1.5015,1.504,1.5063,1.5069,1.4957,1.4942,1.4928,1.4909,1.5067,1.5067,1.5184,1.5185,1.5186]},{"header":{"parameterUnit":"m.s-1","parameterCategory":1,"la1":30.2991,"la2":30.254,"lo1":-89.0895,"lo2":-89.0444,"dy":0.0017,"dx":0.0017,"nx":28,"ny":28,"refTime":"2024-08-13T21:00:00:Z","depth":0,"parameterNumber":3,"parameterNumberName":"V-component_of_WINDS"},"data":[0,0,0,0,0,0,0,0,0,0,0,0,0,0,0,0,0,0,0,0,0,0,0,0,0,0,0,0,0,0,0,0,0,0,0,0,0,0,0,0,0,0,0,0,0,0,0,0,0,0,0,0,0,0,0,0,0,0,0.5673,0.5674,0,0.5711,0.5711,0.5712,0.5688,0.5687,0.5686,0.5685,0.5723,0.5725,0.5727,0,0,0,0,0,0,0,0,0,0,0,0,0,0.5578,0.558,0.5673,0.5674,0.5674,0.5711,0.5711,0.5712,0.5689,0.5687,0.5686,0.5685,0.5723,0.5725,0.5728,0,0,0,0,0,0,0,0,0,0,0,0,0,0.5618,0.5581,0.5673,0.5667,0.5667,0.5711,0.5711,0.5712,0.5689,0.5687,0.5686,0.5684,0.5722,0.5725,0.5728,0.578,0,0,0.5737,0.5739,0,0,0,0,0,0,0,0,0.5616,0.5621,0.5667,0.5668,0.5667,0.5693,0.5692,0.5735,0.5689,0.5681,0.5685,0.5683,0.5715,0.5718,0.5729,0.5781,0.5783,0.5738,0.5739,0.5741,0.5742,0,0,0,0,0,0,0,0.5613,0.562,0.5688,0.5668,0.5668,0.5661,0.5665,0.57,0.5706,0.5681,0.568,0.5684,0.5714,0.5726,0.573,0.5784,0.5737,0.574,0.5742,0.5743,0.5874,0.5876,0,0,0,0,0,0,0.5611,0.5618,0.5687,0.5689,0.5637,0.5664,0.5669,0.5687,0.5706,0.5707,0.5686,0.5683,0.5722,0.5726,0.5731,0.5789,0.5741,0.5744,0.5745,0.5873,0.5875,0.5877,0,0,0,0,0,0,0.5609,0.5617,0.5685,0.5653,0.5661,0.5668,0.5688,0.5688,0.57,0.5709,0.571,0.5697,0.572,0.5727,0.5766,0.579,0.5745,0.5748,0.5871,0.5873,0.5876,0.5908,0,0,0,0,0,0,0.5606,0.5617,0.5638,0.5654,0.5663,0.5722,0.569,0.569,0.5705,0.5702,0.572,0.5721,0.572,0.5762,0.5769,0.5793,0.575,0.5869,0.5872,0.5875,0.5905,0.5911,0.5917,0,0,0,0,0,0.5603,0.5647,0.5639,0.5648,0.5689,0.5723,0.5728,0.5726,0.5707,0.5727,0.5732,0.5721,0.5786,0.5766,0.5774,0.58,0.5867,0.5871,0.5875,0.5902,0.591,0.5916,0,0,0,0,0,0,0.5635,0.5649,0.5641,0.5691,0.5706,0.5719,0.5745,0.5735,0.5756,0.5752,0.5748,0.5752,0.5793,0.58,0.5778,0.5848,0.5824,0.5829,0.5842,0.5849,0.5855,0.5852,0.5753,0,0,0,0,0,0.5648,0.5675,0.5685,0.5728,0.5736,0.5739,0.5754,0.575,0.5765,0.5772,0.578,0.5795,0.5818,0.5834,0.5857,0.5905,0.5907,0.5926,0.5932,0.5937,0.5942,0.5963,0.5971,0.5889,0.5889,0.5889,0,0,0.5675,0.5685,0.5703,0.5734,0.5746,0.5772,0.5745,0.5775,0.5793,0.5776,0.5813,0.582,0.5836,0.5879,0.5898,0.5887,0.5964,0.5942,0.5946,0.5948,0.5968,0.5976,0.5983,0.5891,0.5891,0.589,0,0,0.5736,0.5749,0.5783,0.5794,0.5811,0.5812,0.582,0.5834,0.5837,0.5874,0.586,0.5882,0.5924,0.5934,0.5945,0.6005,0.5993,0.6012,0.6043,0.6064,0.6071,0.6077,0.6095,0.6102,0.6017,0.6017,0.6017,0,0.5768,0.5807,0.5803,0.5832,0.5845,0.5829,0.5862,0.5873,0.5897,0.5905,0.5891,0.594,0.595,0.5993,0.6007,0.6017,0.6024,0.601,0.607,0.6076,0.6081,0.6098,0.6106,0.6019,0.6019,0.6019,0.6018,0,0.5843,0.587,0.5896,0.5917,0.5932,0.5964,0.5962,0.5978,0.5972,0.5974,0.6009,0.602,0.6042,0.6052,0.6048,0.6093,0.6085,0.6071,0.6046,0.6091,0.6107,0.6114,0.6022,0.6021,0.6021,0.602,0,0,0.5929,0.5943,0.5952,0.5959,0.5974,0.5994,0.6023,0.6044,0.6056,0.6072,0.6094,0.6127,0.6113,0.6125,0.6121,0.614,0.6182,0.6123,0.6123,0.6131,0.6228,0.6237,0.6245,0.6174,0.6175,0.6176,0.6226,0,0.5989,0.604,0.6034,0.6081,0.6104,0.6087,0.6111,0.6122,0.6123,0.6142,0.6143,0.6165,0.6146,0.6153,0.6171,0.6173,0.6201,0.6169,0.6193,0.6194,0.6188,0.6254,0.6265,0.6312,0.6233,0.6234,0.6234,0,0.6067,0.6082,0.6132,0.6138,0.6147,0.617,0.6186,0.6204,0.6214,0.6214,0.6225,0.6216,0.6242,0.6217,0.6252,0.623,0.6239,0.6241,0.6243,0.6244,0.6216,0.6255,0.6327,0.6333,0.6245,0.6244,0.6243,0,0.612,0.6154,0.6186,0.6193,0.6203,0.6218,0.6222,0.6231,0.6242,0.6256,0.6262,0.6279,0.6288,0.6301,0.6295,0.6278,0.633,0.6305,0.6328,0.6328,0.6339,0.6338,0.6411,0.6348,0.6348,0.6348,0.6348,0,0.6187,0.6217,0.6209,0.6229,0.6261,0.6253,0.6285,0.6287,0.6294,0.6312,0.6299,0.6316,0.6309,0.6326,0.6322,0.6349,0.6354,0.6352,0.635,0.6352,0.6352,0.6357,0.6353,0.635,0.6349,0.6349,0.6348,0,0.6252,0.6249,0.6282,0.6287,0.6288,0.6311,0.6315,0.6332,0.6331,0.6354,0.6359,0.6357,0.6375,0.6371,0.6391,0.6388,0.6421,0.6417,0.6418,0.6416,0.6438,0.6435,0.6516,0.6524,0.6457,0.6458,0.6458,0,0.6295,0.6317,0.6322,0.6333,0.6338,0.6356,0.6366,0.6358,0.6369,0.6379,0.6395,0.6411,0.6424,0.6453,0.6453,0.6467,0.6462,0.6489,0.6464,0.6463,0.6459,0.6457,0.6457,0.6493,0.6494,0.6495,0.6495,0,0.6369,0.6364,0.638,0.6393,0.6405,0.6415,0.6425,0.6434,0.6426,0.6439,0.6456,0.6466,0.6484,0.65,0.6512,0.6515,0.6503,0.6503,0.6508,0.651,0.6508,0.6507,0.6429,0.6501,0.6501,0.65,0.65,0.65,0.6422,0.6439,0.6444,0.646,0.6465,0.6473,0.6488,0.6487,0.6501,0.6515,0.6509,0.6528,0.6534,0.6549,0.6553,0.6567,0.6556,0.6565,0.6567,0.6569,0.657,0.6507,0.6569,0.6569,0.6569,0.6569,0.6569,0,0.6493,0.6494,0.6509,0.652,0.6532,0.6518,0.6526,0.6537,0.6553,0.6559,0.6571,0.6588,0.6602,0.6602,0.6614,0.6625,0.6619,0.6628,0.6626,0.6626,0.658,0.6573,0.6632,0.6632,0.6632,0.6632,0.6632,0.6632,0.6531,0.6557,0.6553,0.6581,0.6582,0.6599,0.6605,0.661,0.6614,0.6635,0.6645,0.6644,0.6646,0.6658,0.6669,0.6668,0.6672,0.6683,0.668,0.6636,0.663,0.6624,0.6617,0.6684,0.6684,0.6724,0.6725,0.6725]}]]